Location: Newark
(11.6000°N, 43.1667°E)
Time: 06:56:05
(UTC+00:00)

Envisat - Pass Details

Date: 01 October 2019
Orbit: 764 x 766 km, 98.1° (Epoch: 15 October)

Event Time Altitude Azimuth Distance (km) Brightness Sun altitude
Rises 15:44:26 0° 173° (S) 3,219 6.2 -12.3°
Reaches altitude 10° 15:46:45 10° 176° (S) 2,293 5.4 -12.8°
Maximum altitude 15:51:46 68° 258° (WSW) 821 3.4 -14.0°
Drops below altitude 10° 15:56:48 10° 341° (NNW) 2,292 5.7 -15.3°
Sets 15:59:07 0° 344° (NNW) 3,218 6.4 -15.8°
